Location: Beaumetz
(50.1220°N, 2.9841°E)
Time: 21:30:15
(UTC+00:00)

Daily predictions for brighter satellites

Satellite Brightness Start Highest point End
(mag) Time Altitude Azimuth Time Altitude Azimuth Time Altitude Azimuth
NOSS 3-2 (C) 4.1 17:58:08 10° NW 18:05:22 66° NE 18:13:38 10° ESE
ISS -3.7 18:07:28 10° WSW 18:10:49 71° SSE 18:14:12 10° ENE
Lacrosse 4 Rocket 3.6 18:11:35 10° N 18:13:14 12° NNE 18:14:53 10° NE
USA 186 3.6 18:12:01 10° ESE 18:14:04 16° ENE 18:16:08 10° NNE
Cosmos 1898 Rocket 4.3 18:09:41 10° SW 18:14:46 56° WNW 18:19:54 10° NNE
Meteor 2-9 Rocket 4.5 18:11:04 10° SSW 18:16:54 82° W 18:22:39 10° N
Cosmos 1300 Rocket 3.9 18:16:05 10° SSE 18:20:17 45° E 18:24:33 10° NNE
Okean 1 Rocket 4.4 18:20:32 10° SE 18:23:44 20° E 18:26:57 10° NE
CENTAUR R/B 3.2 18:16:33 10° NW 18:24:27 75° NE 18:33:13 10° SE
Sich 1 Rocket 3.6 18:20:04 10° S 18:24:35 78° E 18:29:11 10° NNE
NOSS 2-2 (E) 3.5 18:21:32 10° SW 18:25:05 70° NW 18:29:16 10° NE
Cosmos 1833 Rocket 4.0 18:21:10 10° NNW 18:25:47 25° NE 18:30:12 11° E
Cosmos 2298 Rocket 4.2 18:21:31 10° S 18:26:41 53° ESE 18:31:52 10° NNE
Resurs 01 Rocket 3.7 18:26:35 10° ENE 18:27:52 11° NE 18:29:09 10° NE
Cosmos 1975 4.2 18:23:58 10° SSW 18:27:53 46° WNW 18:31:50 10° N
Iridium 4 Rocket 4.3 18:23:52 10° SSW 18:29:03 63° W 18:34:43 10° N
CSL-04 Debris 4.1 18:25:44 10° SSE 18:31:07 80° ENE 18:36:33 10° NNW
CSL-04 Rocket 3.7 18:27:38 10° SSE 18:33:05 79° ENE 18:38:39 10° NNW
Cosmos 1025 Rocket 3.0 18:29:14 10° N 18:33:38 74° ENE 18:38:02 10° SSE
Okean 2 Rocket 3.1 18:30:22 10° S 18:34:48 64° E 18:39:14 10° NNE
ATLAS 2AS CENTAUR R/B 3.7 18:28:16 10° SSE 18:34:48 29° ESE 18:41:19 10° NE
Cosmos 1937 Rocket 4.5 18:29:49 10° SW 18:34:55 52° WNW 18:40:01 10° NNE
NOSS 2-2 (D) 3.4 18:31:25 10° SW 18:34:56 71° NW 18:39:03 10° NE
YAOGAN 1 2.9 18:31:22 10° S 18:35:40 69° WSW 18:40:00 10° NNW
ATLAS 3B R/B 3.3 18:30:15 10° NW 18:36:41 43° NNE 18:42:35 13° E
SWAS 4.4 18:35:09 10° NNW 18:39:29 84° ENE 18:43:46 10° SSE
Abrixas rocket 2.6 18:37:27 10° W 18:40:10 41° SSW 18:42:11 16° SE
CREW DRAGON DEMO-1 DEB 3.2 18:39:03 10° WNW 18:42:02 57° SSW 18:44:15 16° SE
Cosmos 1513 Rocket 4.4 18:36:12 10° S 18:42:24 78° E 18:48:33 10° NNE
Cosmos 1536 Rocket 3.5 18:38:58 10° N 18:43:26 70° ENE 18:47:53 10° SSE
Cosmos 1125 Rocket 3.7 18:42:13 10° S 18:47:19 50° ESE 18:52:27 10° NNE
SJ-6B 3.5 18:48:31 16° ESE 18:50:58 32° ENE 18:54:24 10° N
CZ-4 R/B 3.1 18:49:25 10° SSW 18:53:22 38° W 18:57:16 10° NNW
USA 238 DEB 4.3 18:46:39 10° NW 18:53:45 64° SW 19:01:08 10° SSE
USA 238 4.3 18:46:45 10° NW 18:53:52 65° SW 19:01:15 10° SSE
Cosmos 2150 Rocket 4.0 18:48:49 10° SSW 18:54:13 80° ESE 18:59:43 10° NNE
SJ-11-01 4.5 18:49:37 10° S 18:54:20 77° WSW 18:59:03 10° NNW
CZ-2C R/B 3.6 18:50:04 10° S 18:55:26 67° WSW 19:01:08 10° NNW
Cosmos 1464 Rocket 4.0 18:49:37 10° S 18:55:46 89° WNW 19:02:01 10° N
Cosmos 1674 2.7 18:52:00 10° N 18:55:50 63° ENE 18:59:38 10° SSE
Cosmos 2026 Rocket 4.4 18:50:20 10° N 18:56:25 44° ENE 19:02:16 11° SE
Cosmos 1092 Rocket 4.1 18:50:39 10° N 18:56:43 54° ENE 19:02:46 10° SSE
Cosmos 2285 Rocket 4.1 18:52:00 10° S 18:58:04 52° ESE 19:04:13 10° NNE
MOS 1 Rocket 3.0 18:58:03 10° NNE 19:02:29 73° ESE 19:06:44 10° S
FREGAT/IRIS 3.0 19:04:41 33° ENE 19:04:41 33° ENE 19:07:04 10° N
ARGOS 3.3 19:05:38 10° SSE 19:10:59 80° WSW 19:16:25 10° NNW
CZ-2C R/B 2.9 19:07:17 10° NNE 19:12:40 47° E 19:18:03 10° S
Cosmos 1340 Rocket 3.6 19:15:11 29° E 19:15:11 29° E 19:18:31 10° NNE
Cosmos 1733 3.5 19:13:48 15° SSE 19:16:42 43° E 19:20:21 10° NNE
Cosmos 2151 Rocket 4.0 19:13:02 10° SSW 19:17:30 68° WNW 19:22:01 10° N
Lacrosse 5 rocket 2.6 19:14:11 10° WNW 19:18:13 35° N 19:20:43 20° ENE
MOS 1 4.3 19:13:05 12° SSE 19:18:24 70° ENE 19:24:07 10° NNW
Cosmos 2082 Rocket 3.1 19:14:01 10° NNW 19:19:02 32° NE 19:21:17 24° E
BREEZE-M DEB (TANK) 4.2 19:19:15 10° W 19:22:20 33° SSW 19:27:36 16° SE
DMSP B5D2-2 4.3 19:17:23 10° NNE 19:22:31 48° E 19:27:36 10° S
BREEZE-M R/B 3.9 19:13:10 10° WSW 19:23:10 58° SSE 19:24:25 36° ESE
Meteor 1-15 Rocket 4.2 19:22:32 10° S 19:28:12 88° WNW 19:34:02 10° NNE
Cosmos 1805 3.1 19:24:40 10° S 19:28:35 84° E 19:32:31 10° NNE
OBJECT-B 1.1 19:28:48 45° ENE 19:28:48 45° ENE 19:31:48 10° N
Ariane Rocket 3.0 19:28:06 12° SSE 19:32:51 82° WSW 19:37:58 10° NNW
SL-08 RB Rocket 4.0 19:28:23 10° S 19:32:55 66° WSW 19:37:27 10° NNW
H-2A R/B 3.4 19:29:47 10° SSW 19:34:28 39° W 19:39:19 10° NNW
Cosmos 1269 Rocket 4.1 19:30:43 10° NNW 19:36:03 80° WSW 19:39:33 22° SSE
Cosmos 1626 2.0 19:37:25 10° N 19:41:09 88° E 19:42:02 51° SSE
Okean 1-7 Rocket 3.9 19:37:01 10° N 19:41:26 45° ENE 19:41:51 43° E
Terra 4.1 19:42:51 11° NE 19:42:51 11° NE 19:43:50 10° NE
MetOp-A 4.1 19:40:20 18° SSE 19:44:23 83° WSW 19:49:47 10° NNW
USA 186 3.0 19:42:34 20° SSW 19:44:28 41° W 19:47:37 10° NNW
COSMOS 2406 3.1 19:39:35 10° NNW 19:45:18 88° ENE 19:47:55 34° SSE
Cosmos 1455 Rocket 4.2 19:47:18 28° NE 19:47:18 28° NE 19:49:53 10° NNE
Cosmos 1844 Rocket 3.4 19:41:46 10° SW 19:47:13 53° NW 19:52:44 10° NNE
ISS -3.6 19:44:21 10° W 19:47:43 65° N 19:47:46 65° N
Cosmos 2278 Rocket 2.5 19:46:00 10° S 19:51:32 43° ESE 19:56:37 10° NE
Lacrosse 4 Rocket 1.7 19:48:56 10° NNW 19:52:52 48° NE 19:52:52 48° NE
Cosmos 1844 4.3 19:49:17 10° SW 19:54:52 57° NW 20:00:26 10° NNE
Meteor 2-5 Rocket 4.2 19:49:54 10° NNW 19:55:30 62° W 20:00:46 12° S
Meteor 1-22 Rocket 4.3 19:50:09 10° S 19:56:05 82° ESE 20:02:13 10° NNE
Meteor 1-24 Rocket 3.8 19:52:18 10° NNW 19:57:51 75° W 20:01:37 22° S
Cosmos 909 Rocket 4.2 19:51:24 10° NW 19:57:59 60° NE 19:59:55 42° ESE
Exosat Rocket 3.9 19:54:01 10° SW 19:59:13 63° WNW 20:04:16 10° NNE
Cosmos 2266 Rocket 4.3 19:54:17 10° N 20:00:01 41° ENE 20:00:34 40° E
SL-14 R/B 3.6 19:57:09 10° NNW 20:01:04 65° W 20:01:55 49° SSW
Okean 1 Rocket 3.9 19:56:53 10° SSW 20:01:16 52° WNW 20:05:40 10° N
Meteor 2-19 Rocket 4.4 19:55:55 10° N 20:02:01 66° ENE 20:03:47 46° SE
NOSS 3-4 (A) 3.3 19:56:21 10° SW 20:02:16 82° SE 20:08:42 10° NE
NOSS 3-4 (C) 3.3 19:56:27 10° SW 20:02:23 81° SE 20:08:48 10° NE
Resurs 01 Rocket 1.5 20:03:26 68° E 20:03:32 69° ENE 20:07:59 10° N
Cosmos 1833 Rocket 2.7 20:04:42 10° NNW 20:10:24 82° WSW 20:11:54 51° SSE
Cosmos 1766 4.5 20:06:42 10° SSW 20:10:28 42° WNW 20:14:16 10° N
CZ-2C R/B 4.3 20:06:46 10° NNE 20:09:58 44° NE 20:09:58 44° NE
Cosmos 2251 Rocket 3.5 20:07:56 10° NNW 20:13:18 67° ENE 20:13:44 64° E
CENTAUR R/B 4.3 20:07:36 10° NW 20:14:58 39° WSW 20:22:00 13° S
ERS-1 Rocket 4.2 20:17:39 28° NE 20:17:39 28° NE 20:21:08 10° N
ARIANE 5 R/B 3.2 20:20:05 45° NNE 20:20:05 45° NNE 20:23:22 10° N
SPOT 3 Rocket 3.8 20:20:50 46° SSW 20:22:14 66° WSW 20:27:24 10° NNW
Cosmos 1634 Rocket 4.4 20:18:31 10° SSW 20:24:36 62° WNW 20:30:48 10° N
ATLAS 2AS CENTAUR R/B 3.0 20:17:07 10° SW 20:25:07 87° NW 20:33:01 10° NE
Resurs 1-3 4.3 20:26:17 44° SW 20:26:58 49° W 20:31:16 10° NNW
Landsat 7 4.2 20:27:58 52° NNE 20:27:58 52° NNE 20:31:52 10° N
ATLAS 3B R/B 2.9 20:21:00 10° NW 20:27:49 68° SW 20:29:50 47° S
Cosmos 1892 Rocket 4.3 20:23:56 10° NNW 20:28:07 49° W 20:28:35 46° WSW
SPOT 5 4.1 20:33:48 34° NE 20:33:48 34° NE 20:37:40 10° N
Meteor 1-21 Rocket 4.2 20:27:25 10° N 20:33:13 72° ENE 20:33:15 72° E
Cosmos 1655 Rocket 3.9 20:30:28 10° N 20:36:47 89° WSW 20:37:50 65° S
Cosmos 1461 4.1 20:35:45 10° NNW 20:39:30 42° N 20:39:30 42° N
CZ-2C R/B 4.3 20:47:52 10° N 20:52:47 33° WNW 20:57:45 10° SW
Lacrosse 5 rocket 2.8 20:53:26 10° NW 20:56:20 39° NW 20:56:20 39° NW
MetOp-B 4.5 20:58:51 61° W 20:58:51 61° W 21:04:00 10° NNW
Cosmos 2098 Rocket 4.2 20:54:28 10° NNW 21:01:08 61° W 21:01:45 58° WSW
OBJECT-B 4.1 21:01:59 12° WNW 21:01:59 12° WNW 21:02:50 10° WNW
Cosmos 2082 Rocket 2.6 20:57:56 10° NW 21:03:08 55° W 21:03:08 55° W
Spot 2 Rocket 4.1 21:05:26 53° NW 21:05:26 53° NW 21:09:24 10° NNW
Terra 3.5 21:21:44 28° N 21:21:44 28° N 21:24:02 10° N
ATLAS CENTAUR R/B 4.3 21:27:13 10° NNW 21:27:26 11° NNW 21:27:26 11° NNW
Lacrosse 4 Rocket 4.1 21:28:06 10° WNW 21:29:10 15° WNW 21:29:10 15° WNW
Cosmos 2278 Rocket 3.3 21:33:01 27° W 21:35:26 40° NW 21:40:47 10° NNE
Resurs 01 Rocket 4.2 21:41:01 16° W 21:41:01 16° W 21:43:14 10° NW
ATLAS 2AS CENTAUR R/B 4.2 22:09:45 10° W 22:17:07 39° NNW 22:24:14 10° NE
NOSS 3-1 (C) 4.5 22:32:00 10° NW 22:37:24 55° NNW 22:37:24 55° NNW
CZ-4C R/B 4.3 22:45:17 24° NNE 22:45:17 24° NNE 22:48:04 10° NE
Cosmos 2297 Rocket 4.3 22:53:35 10° NNW 22:56:26 21° NNE 22:56:26 21° NNE
Cosmos 2369 Rocket 4.4 23:10:31 19° NNE 23:10:31 19° NNE 23:12:05 10° NNE
SL-16 R/B 4.3 23:50:37 24° NE 23:50:37 24° NE 23:54:41 10° N
